Preview of NWS' New Version of Forecast
This preview is not operational and should not be used for support decisions.

Regional Weather Roundup (RWR)

Issued by National Weather Service (NWS)

                            
000
ASUS44 KMEG 182100
RWRTN 
TENNESSEE HOURLY STATE WEATHER ROUNDUP
NATIONAL WEATHER SERVICE MEMPHIS TN
300 PM CST MON FEB 18 2019

TNZ002-004-019-021-049-052-054-088>092-182200-
WEST TENNESSEE
  
CITY           SKY/WX    TMP DP  RH WIND       PRES   REMARKS
MEMPHIS INTL   CLOUDY    42  25  50 N14       30.37R                  
NWS MEMPHIS      N/A     41 N/A N/A MISG        N/A                   
JACKSON        FAIR      40  26  57 N13       30.39F WCI  32          
DYERSBURG      FAIR      39  25  57 NW10      30.42S WCI  32          
$$

TNZ008-025-027-028-033-062-065-066-182200-
NORTH MIDDLE TENNESSEE
  
CITY           SKY/WX    TMP DP  RH WIND       PRES   REMARKS
NASHVILLE      PTSUNNY   40  23  50 NW9       30.39R WCI  34          
CLARKSVILLE    PTSUNNY   40  23  50 VRB6G16   30.40R                  
SMYRNA         FAIR      40  27  59 N16       30.39R WCI  31          
CROSSVILLE     FAIR      40  24  53 VRB6      30.27R                  
$$

TNZ061-075-076-078-094-096-097-182200-
SOUTH MIDDLE TENNESSEE
  
CITY           SKY/WX    TMP DP  RH WIND       PRES   REMARKS
$$

TNZ017-018-042-046-047-182200-
NORTHEAST TENNESSEE
  
CITY           SKY/WX    TMP DP  RH WIND       PRES   REMARKS
TRI CITIES     FAIR      50  32  50 W12G18    30.20R                  
$$

TNZ012-013-036-069-073-074-182200-
CENTRAL EAST TENNESSEE
  
CITY           SKY/WX    TMP DP  RH WIND       PRES   REMARKS
KNOXVILLE      CLOUDY    47  28  47 W8        30.26R                  
OAK RIDGE      FAIR      50  30  46 VRB5      30.28R                  
$$

TNZ083-085-099-182200-
SOUTHEAST TENNESSEE
  
CITY           SKY/WX    TMP DP  RH WIND       PRES   REMARKS
CHATTANOOGA    PTSUNNY   53  29  39 N9        30.25S                  
$$

SKY/WX REPORTED AS FAIR MEANS FEW OR NO CLOUDS BELOW
12 THOUSAND FEET.